Flag for Canada Weather past 2 weeks in Quesnel, British Columbia, Canada

Now
46 °F

Overcast.


Feels Like: 41 °F
Forecast: 37 / 52 °F
Wind: 12 mph from South

Location: Quesnel Airport

Current Time: Mar 29, 2015 at 6:32:58 AM

Latest Report: Mar 29, 2015 at 6:00 AM


Visibility: 9 mi

Pressure: 29.88 "Hg

Humidity: 62%

Dew point: 34 °F

Location of QuesnelLocation

Historic Weather in Quesnel — Graph

°F

Quesnel temperature yesterday

Maximum temperature yesterday: 57 °F (at 4:00 PM)
Minimum temperature yesterday: 36 °F (at 8:00 AM)
Average temperature yesterday: 47 °F

Past Weeks' High & Low Weather Summary

 TemperatureHumidityPressure
High61 °F (Mar 14, 2:00 PM)100% (Mar 19, 6:00 AM)30.47 "Hg (Mar 19, 6:00 AM)
Low19 °F (Mar 16, 6:00 AM)15% (Mar 16, 5:00 PM)29.28 "Hg (Mar 14, 12:00 PM)
Average40 °F76%30.00 "Hg
* Reported Mar 14 5:00 AM — Mar 29 5:00 AM, Quesnel, Weather by CustomWeather, © 2015

Note: Actual official high and low records may vary slightly from our data, if they occured in-between our weather recording intervals... More about our weather records

Advertising

Quesnel weather history for previous 24 hours

 ConditionsComfort  
Time TempWeatherWind HumidityBarometerVisibility
5:00 AM
Sun, Mar 29
46 °FOvercast.6 mph62%29.89 "Hg9 mi
4:00 AM46 °FOvercast.7 mph57%29.91 "Hg9 mi
3:00 AM48 °FOvercast.5 mph50%29.93 "Hg9 mi
2:00 AM48 °FOvercast.8 mph50%29.94 "Hg9 mi
1:00 AM48 °FMostly cloudy.6 mph54%29.98 "Hg9 mi
12:00 AM52 °FOvercast.9 mph44%29.97 "Hg9 mi
11:00 PM
Sat, Mar 28
52 °FMostly cloudy.9 mph44%29.98 "Hg9 mi
10:00 PM52 °FMostly cloudy.10 mph47%29.97 "Hg9 mi
9:00 PM52 °FOvercast.7 mph47%29.96 "Hg9 mi
8:00 PM54 °FMostly cloudy.8 mph41%29.96 "Hg9 mi
7:00 PM54 °FMostly cloudy.6 mph41%29.97 "Hg9 mi
6:00 PM55 °FPartly sunny.6 mph36%29.99 "Hg9 mi
5:00 PM55 °FPartly sunny.9 mph36%30.01 "Hg9 mi
4:00 PM57 °FSunny.9 mph29%30.01 "Hg9 mi
3:00 PM55 °FPassing clouds.5 mph38%30.02 "Hg9 mi
2:00 PM54 °FSunny.3 mph44%30.02 "Hg9 mi
1:00 PM52 °FScattered clouds.8 mph50%30.05 "Hg9 mi
12:00 PM50 °FSunny.7 mph58%30.05 "Hg9 mi
11:00 AM46 °FPartly sunny.6 mph71%30.05 "Hg9 mi
10:00 AM45 °FSunny.5 mph76%30.03 "Hg9 mi
9:00 AM41 °FSunny.5 mph87%30.02 "Hg9 mi
8:00 AM36 °FSunny.2 mph100%29.99 "Hg9 mi
7:00 AM37 °FPassing clouds.No wind93%29.96 "Hg9 mi
6:00 AM39 °FOvercast.3 mph93%29.91 "Hg9 mi
Weather by CustomWeather, © 2015

See weather overviewHow to use our weather pages